Regional Weather Roundup
Issued by NWS Sioux Falls, SD

Home | Current Version | Previous Version | Text Only | Print | Product List | Glossary On
Versions: 1 2 3 4 5 6 7 8 9 10 11 12 13 14 15 16 17 18 19 20 21 22 23 24 25 26 27 28 29 30 31 32 33 34 35 36 37 38 39 40 41 42 43 44 45 46 47 48 49 50
000
ASUS43 KFSD 290610
RWRFSD

WEATHER ROUNDUP FOR SE SOUTH DAKOTA/SW MINNESOTA/NW IOWA
NATIONAL WEATHER SERVICE SIOUX FALLS SD
100 AM CDT WED JUL 29 2015

NOTE: "FAIR" INDICATES FEW OR NO CLOUDS BELOW 12,000 FEET WITH NO
SIGNIFICANT WEATHER AND OR OBSTRUCTIONS TO VISIBILITY.


SDZ038>040-050-052>070-290700-
SOUTHEAST SOUTH DAKOTA

CITY           SKY/WX    TMP DP  RH WIND       PRES   REMARKS
BROOKINGS      CLEAR     63  52  67 SW7       30.06S
CHAMBERLAIN    CLEAR     62  50  65 W7        30.09R
6HR MIN TEMP:  61; 6HR MAX TEMP:  80;

HURON          CLEAR     63  51  65 SW8       30.02R
6HR MIN TEMP:  61; 6HR MAX TEMP:  79;

MADISON        FAIR      63  54  72 W6        30.07R
MITCHELL       CLEAR     63  53  70 SW5       30.06R
6HR MIN TEMP:  63; 6HR MAX TEMP:  81;

SIOUX FALLS    CLEAR     62  56  80 W6        30.06R
6HR MIN TEMP:  61; 6HR MAX TEMP:  79;

WINNER         FAIR      63  49  60 W9        30.12R
YANKTON        CLEAR     64  54  68 NW6       30.07R
$$

MNZ071-072-080-081-089-090-097-098-290700-
SOUTHWEST MINNESOTA

CITY           SKY/WX    TMP DP  RH WIND       PRES   REMARKS
FAIRMONT       PTCLDY    63  55  77 CALM      30.01R
JACKSON        PTCLDY    63  57  82 W5        30.04R
LUVERNE        CLEAR     63  55  77 NW5       30.06R
MARSHALL       CLEAR     63  52  67 W10       30.01F
6HR MIN TEMP:  63; 6HR MAX TEMP:  79;

MONTEVIDEO     CLEAR     64  55  72 W8        29.98F
PIPESTONE      CLEAR     66  54  63 NW6       30.05F
REDWOOD FALLS  CLEAR     67  55  65 W14       29.97S
TRACY          CLEAR     66  55  68 W6        30.02S
WINDOM         CLEAR     63  57  82 W3        30.02S
WORTHINGTON    CLEAR     63  54  72 W10       30.04S
$$

IAZ001>003-012>014-020>022-031-032-NEZ013-014-SDZ071-290700-
NORTHWEST IOWA

CITY           SKY/WX    TMP DP  RH WIND       PRES   REMARKS
CHEROKEE       CLEAR     60  60 100 CALM      30.04S
DENISON        PTCLDY    64  63  94 CALM      30.04R
ESTHERVILLE    PTCLDY    60  58  92 SW6       30.03R
LE MARS        CLEAR     61  61 100 CALM      30.06R FOG
ORANGE CITY    CLEAR     61  61 100 NW5       30.06R
SHELDON        CLEAR     61  57  88 W7        30.04R
SIOUX CITY     CLEAR     62  59  90 NW3       30.05R
6HR MIN TEMP:  62; 6HR MAX TEMP:  80;

SPENCER        CLEAR     60  57  89 W3        30.04R
6HR MIN TEMP:  60; 6HR MAX TEMP:  79;

STORM LAKE     PTCLDY    63  59  88 NW7       30.05S
$$

ABBREVIATIONS USED IN REMARKS
   TC - TEMPERATURE IN CELSIUS
  WCI - WIND CHILL INDEX
   HX - HEAT INDEX
  VSB - VISIBILITY




USA.gov is the U.S. government's official web portal to all federal, state and local government web resources and services.